[[{"header":{"parameterUnit":"m.s-1","parameterCategory":1,"la1":30.2991,"la2":30.254,"lo1":-89.0895,"lo2":-89.0444,"dy":0.0017,"dx":0.0017,"nx":28,"ny":28,"refTime":"2024-03-27T03:00:00:Z","depth":0,"parameterNumber":2,"parameterNumberName":"U-component_of_WINDS"},"data":[0,0,0,0,0,0,0,0,0,0,0,0,0,0,0,0,0,0,0,0,0,0,0,0,0,0,0,0,0,0,0,0,0,0,0,0,0,0,0,0,0,0,0,0,0,0,0,0,0,0,0,0,0,0,0,0,0,0,-0.0496,-0.0496,0,-0.0518,-0.0519,-0.0519,-0.0509,-0.0509,-0.0508,-0.0507,-0.0532,-0.0533,-0.0534,0,0,0,0,0,0,0,0,0,0,0,0,0,-0.0446,-0.0447,-0.0496,-0.0496,-0.0497,-0.0518,-0.0519,-0.0519,-0.0509,-0.0508,-0.0508,-0.0507,-0.0531,-0.0533,-0.0534,0,0,0,0,0,0,0,0,0,0,0,0,0,-0.0468,-0.0447,-0.0496,-0.0494,-0.0494,-0.0518,-0.0519,-0.0519,-0.0509,-0.0508,-0.0508,-0.0507,-0.0531,-0.0533,-0.0534,-0.0562,0,0,-0.054,-0.0541,0,0,0,0,0,0,0,0,-0.0467,-0.047,-0.0494,-0.0494,-0.0495,-0.051,-0.051,-0.0533,-0.051,-0.0504,-0.0507,-0.0506,-0.0525,-0.0528,-0.0534,-0.0563,-0.0564,-0.054,-0.0541,-0.0542,-0.0542,0,0,0,0,0,0,0,-0.0465,-0.0469,-0.0505,-0.0495,-0.0495,-0.0493,-0.0495,-0.0514,-0.0519,-0.0504,-0.0503,-0.0506,-0.0525,-0.0532,-0.0534,-0.0564,-0.054,-0.0541,-0.0542,-0.0543,-0.0617,-0.0618,0,0,0,0,0,0,-0.0463,-0.0467,-0.0504,-0.0506,-0.0478,-0.0494,-0.0497,-0.0506,-0.0519,-0.052,-0.0507,-0.0506,-0.0529,-0.0532,-0.0535,-0.0568,-0.0542,-0.0543,-0.0544,-0.0616,-0.0617,-0.0618,0,0,0,0,0,0,-0.0462,-0.0467,-0.0503,-0.0486,-0.0491,-0.0496,-0.0506,-0.0507,-0.0513,-0.0521,-0.0522,-0.0513,-0.0529,-0.0532,-0.0555,-0.0569,-0.0544,-0.0546,-0.0615,-0.0616,-0.0618,-0.0634,0,0,0,0,0,0,-0.0461,-0.0466,-0.0477,-0.0487,-0.0492,-0.0523,-0.0507,-0.0508,-0.0516,-0.0515,-0.0526,-0.0528,-0.0528,-0.0552,-0.0557,-0.0571,-0.0547,-0.0614,-0.0616,-0.0617,-0.0633,-0.0636,-0.0639,0,0,0,0,0,-0.0459,-0.0481,-0.0477,-0.0482,-0.0505,-0.0524,-0.0527,-0.0527,-0.0517,-0.0528,-0.0532,-0.0527,-0.0566,-0.0555,-0.056,-0.0574,-0.0613,-0.0615,-0.0617,-0.0631,-0.0635,-0.0639,0,0,0,0,0,0,-0.0474,-0.0482,-0.0478,-0.0504,-0.0513,-0.0522,-0.0536,-0.0531,-0.0544,-0.0542,-0.0542,-0.0544,-0.0568,-0.0573,-0.056,-0.0601,-0.0588,-0.0591,-0.0597,-0.0601,-0.0604,-0.0603,-0.0549,0,0,0,0,0,-0.048,-0.0494,-0.0501,-0.0523,-0.0527,-0.0531,-0.0539,-0.0538,-0.0548,-0.0552,-0.0558,-0.0568,-0.0582,-0.0592,-0.0605,-0.0633,-0.0635,-0.0645,-0.0648,-0.0651,-0.0654,-0.0669,-0.0673,-0.0625,-0.0625,-0.0625,0,0,-0.0493,-0.0499,-0.0508,-0.0526,-0.0533,-0.0548,-0.0534,-0.0551,-0.0562,-0.0554,-0.0576,-0.0581,-0.0592,-0.0617,-0.0628,-0.0622,-0.0667,-0.0653,-0.0655,-0.0657,-0.0671,-0.0676,-0.068,-0.0626,-0.0626,-0.0626,0,0,-0.0524,-0.053,-0.0549,-0.0556,-0.0566,-0.0568,-0.0572,-0.0582,-0.0585,-0.0606,-0.06,-0.0614,-0.0638,-0.0647,-0.0654,-0.0687,-0.0683,-0.0691,-0.0709,-0.0723,-0.0727,-0.073,-0.0743,-0.0747,-0.0694,-0.0694,-0.0694,0,-0.0539,-0.0561,-0.056,-0.0577,-0.0585,-0.0577,-0.0596,-0.0603,-0.0618,-0.0623,-0.0616,-0.0646,-0.0653,-0.068,-0.0688,-0.0694,-0.0699,-0.0691,-0.0726,-0.073,-0.0733,-0.0745,-0.0749,-0.0695,-0.0695,-0.0695,-0.0695,0,-0.058,-0.0595,-0.0609,-0.0623,-0.0632,-0.065,-0.0651,-0.0661,-0.0658,-0.0661,-0.0683,-0.069,-0.0705,-0.0711,-0.071,-0.0738,-0.0734,-0.0726,-0.0713,-0.0739,-0.075,-0.0754,-0.0697,-0.0696,-0.0696,-0.0696,0,0,-0.0623,-0.0634,-0.0639,-0.0645,-0.0655,-0.0667,-0.0685,-0.0699,-0.0707,-0.0717,-0.0732,-0.0752,-0.0745,-0.0753,-0.0752,-0.0765,-0.0791,-0.0756,-0.0756,-0.0763,-0.0823,-0.0829,-0.0834,-0.0787,-0.0788,-0.0789,-0.0822,0,-0.0656,-0.0686,-0.0684,-0.0713,-0.0727,-0.072,-0.0735,-0.0743,-0.0745,-0.0758,-0.0761,-0.0775,-0.0764,-0.0769,-0.0781,-0.0785,-0.0803,-0.0783,-0.0802,-0.0803,-0.0801,-0.084,-0.0847,-0.0878,-0.0826,-0.0827,-0.0828,0,-0.0699,-0.0709,-0.0739,-0.0747,-0.0753,-0.0766,-0.0779,-0.0791,-0.0799,-0.08,-0.0809,-0.0805,-0.0823,-0.0808,-0.0833,-0.0819,-0.0827,-0.0829,-0.0831,-0.0834,-0.0818,-0.0845,-0.0888,-0.0893,-0.0834,-0.0834,-0.0833,0,-0.0728,-0.075,-0.077,-0.0776,-0.0785,-0.0794,-0.0799,-0.0806,-0.0815,-0.0825,-0.0831,-0.0843,-0.0851,-0.0861,-0.0861,-0.085,-0.0886,-0.0871,-0.0887,-0.0887,-0.0897,-0.0896,-0.0943,-0.0899,-0.0899,-0.0899,-0.0899,0,-0.0766,-0.0785,-0.0784,-0.0797,-0.0818,-0.0815,-0.0836,-0.0839,-0.0845,-0.0859,-0.0853,-0.0865,-0.0864,-0.0877,-0.0877,-0.0897,-0.0901,-0.0902,-0.0902,-0.0904,-0.0903,-0.091,-0.0908,-0.09,-0.09,-0.09,-0.09,0,-0.0803,-0.0803,-0.0825,-0.0831,-0.0833,-0.0849,-0.0854,-0.0866,-0.0867,-0.0884,-0.0888,-0.089,-0.0905,-0.0906,-0.0923,-0.0923,-0.0948,-0.0945,-0.0945,-0.0945,-0.0962,-0.0961,-0.1015,-0.1022,-0.0973,-0.0973,-0.0974,0,-0.0828,-0.0843,-0.085,-0.0858,-0.0863,-0.0876,-0.0884,-0.0882,-0.0891,-0.0901,-0.0912,-0.0926,-0.0937,-0.0961,-0.0964,-0.0977,-0.0975,-0.0993,-0.0977,-0.0978,-0.0976,-0.0976,-0.0978,-0.0997,-0.0997,-0.0998,-0.0998,0,-0.0873,-0.0872,-0.0883,-0.0895,-0.0905,-0.0914,-0.0922,-0.0929,-0.0928,-0.0938,-0.0952,-0.0961,-0.0978,-0.0992,-0.1004,-0.1009,-0.1003,-0.1003,-0.1007,-0.101,-0.101,-0.1011,-0.0955,-0.1002,-0.1002,-0.1001,-0.1001,-0.1001,-0.0905,-0.0918,-0.0924,-0.0938,-0.0943,-0.0951,-0.0963,-0.0965,-0.0977,-0.099,-0.0988,-0.1004,-0.1012,-0.1027,-0.1033,-0.1046,-0.1039,-0.1046,-0.1048,-0.105,-0.1052,-0.1006,-0.1048,-0.1048,-0.1047,-0.1047,-0.1047,0,-0.095,-0.0954,-0.0966,-0.0977,-0.0988,-0.098,-0.0989,-0.0998,-0.1013,-0.102,-0.103,-0.1047,-0.106,-0.1064,-0.1077,-0.1086,-0.1084,-0.109,-0.109,-0.1091,-0.1057,-0.1052,-0.1092,-0.1092,-0.1092,-0.1092,-0.1092,-0.1091,-0.0975,-0.0995,-0.0995,-0.1018,-0.1021,-0.1037,-0.1043,-0.105,-0.1055,-0.1074,-0.1085,-0.1087,-0.1092,-0.1105,-0.1117,-0.1118,-0.1123,-0.113,-0.113,-0.1098,-0.1094,-0.109,-0.1085,-0.1131,-0.1131,-0.1164,-0.1164,-0.1164]},{"header":{"parameterUnit":"m.s-1","parameterCategory":1,"la1":30.2991,"la2":30.254,"lo1":-89.0895,"lo2":-89.0444,"dy":0.0017,"dx":0.0017,"nx":28,"ny":28,"refTime":"2024-03-27T03:00:00:Z","depth":0,"parameterNumber":3,"parameterNumberName":"V-component_of_WINDS"},"data":[0,0,0,0,0,0,0,0,0,0,0,0,0,0,0,0,0,0,0,0,0,0,0,0,0,0,0,0,0,0,0,0,0,0,0,0,0,0,0,0,0,0,0,0,0,0,0,0,0,0,0,0,0,0,0,0,0,0,-3.0131,-3.0132,0,-3.0238,-3.0239,-3.024,-3.0215,-3.0213,-3.0211,-3.0209,-3.0315,-3.032,-3.0325,0,0,0,0,0,0,0,0,0,0,0,0,0,-2.9904,-2.9908,-3.0131,-3.0133,-3.0134,-3.0238,-3.0239,-3.0241,-3.0215,-3.0213,-3.021,-3.0208,-3.0314,-3.0319,-3.0325,0,0,0,0,0,0,0,0,0,0,0,0,0,-3.0006,-2.991,-3.0131,-3.0134,-3.0135,-3.0237,-3.0239,-3.0241,-3.0216,-3.0213,-3.0209,-3.0207,-3.0312,-3.0319,-3.0326,-3.0432,0,0,-3.0348,-3.0351,0,0,0,0,0,0,0,0,-3.0,-3.0014,-3.0132,-3.0134,-3.0135,-3.021,-3.0198,-3.0305,-3.0216,-3.0185,-3.0209,-3.0205,-3.0283,-3.0292,-3.0319,-3.0437,-3.0441,-3.0348,-3.0353,-3.0356,-3.0358,0,0,0,0,0,0,0,-2.9993,-3.0009,-3.0173,-3.0134,-3.0136,-3.0129,-3.014,-3.0218,-3.025,-3.0187,-3.0186,-3.0199,-3.0283,-3.0312,-3.0321,-3.0443,-3.0348,-3.0355,-3.0359,-3.0362,-3.0654,-3.0657,0,0,0,0,0,0,-2.9985,-3.0004,-3.017,-3.0177,-3.0059,-3.0136,-3.0148,-3.0189,-3.0249,-3.0255,-3.0201,-3.0197,-3.0301,-3.0313,-3.0325,-3.0453,-3.0356,-3.0362,-3.0366,-3.065,-3.0654,-3.0658,0,0,0,0,0,0,-2.998,-3.0,-3.0166,-3.009,-3.011,-3.0143,-3.0189,-3.0193,-3.0222,-3.0259,-3.0265,-3.0225,-3.0299,-3.0315,-3.0406,-3.0456,-3.0366,-3.0372,-3.0646,-3.0652,-3.0656,-3.0711,0,0,0,0,0,0,-2.9974,-2.9998,-3.0039,-3.0091,-3.0115,-3.0246,-3.0192,-3.0197,-3.0234,-3.023,-3.0283,-3.0289,-3.0298,-3.0395,-3.0413,-3.0465,-3.0378,-3.0642,-3.0649,-3.0655,-3.0704,-3.0717,-3.0728,0,0,0,0,0,-2.9966,-3.0049,-3.0041,-3.0061,-3.0166,-3.0248,-3.0262,-3.0271,-3.0239,-3.028,-3.0304,-3.0287,-3.0448,-3.0405,-3.0424,-3.0479,-3.0639,-3.0647,-3.0654,-3.0699,-3.0714,-3.0727,0,0,0,0,0,0,-3.0001,-3.0056,-3.0048,-3.0151,-3.0195,-3.0244,-3.0296,-3.0287,-3.0341,-3.0335,-3.0343,-3.0355,-3.0449,-3.0473,-3.0423,-3.0585,-3.0539,-3.0551,-3.0566,-3.0581,-3.0592,-3.0585,-3.0384,0,0,0,0,0,-3.0021,-3.0084,-3.0128,-3.0215,-3.0238,-3.0263,-3.0299,-3.0303,-3.0349,-3.0367,-3.0398,-3.0443,-3.0504,-3.0543,-3.0601,-3.0708,-3.0719,-3.0755,-3.0767,-3.0776,-3.0787,-3.0846,-3.0862,-3.0684,-3.0684,-3.0684,0,0,-3.0063,-3.0101,-3.0139,-3.0223,-3.0258,-3.0323,-3.0279,-3.0349,-3.0397,-3.0378,-3.0466,-3.0491,-3.0541,-3.0641,-3.0686,-3.0664,-3.0839,-3.0786,-3.0793,-3.0799,-3.0856,-3.0872,-3.0887,-3.0689,-3.0688,-3.0687,0,0,-3.0172,-3.0207,-3.0283,-3.032,-3.0374,-3.039,-3.0409,-3.0459,-3.0475,-3.0564,-3.0552,-3.0608,-3.0712,-3.075,-3.0782,-3.0907,-3.0894,-3.0925,-3.0986,-3.1044,-3.1058,-3.107,-3.1116,-3.1132,-3.0935,-3.0935,-3.0936,0,-3.0217,-3.0314,-3.0324,-3.0396,-3.0433,-3.042,-3.0497,-3.0532,-3.0601,-3.0627,-3.0602,-3.0733,-3.0766,-3.0875,-3.0905,-3.0932,-3.0953,-3.0919,-3.1055,-3.1068,-3.108,-3.1123,-3.114,-3.0939,-3.0939,-3.0938,-3.0938,0,-3.0367,-3.0435,-3.0491,-3.056,-3.0603,-3.0678,-3.0698,-3.0741,-3.0741,-3.076,-3.0851,-3.0891,-3.0957,-3.0983,-3.0983,-3.1092,-3.1077,-3.1053,-3.1007,-3.11,-3.1141,-3.1158,-3.0944,-3.0943,-3.0942,-3.0941,0,0,-3.0501,-3.0576,-3.0596,-3.0628,-3.0687,-3.074,-3.0814,-3.0879,-3.0916,-3.0965,-3.1027,-3.1117,-3.1096,-3.1133,-3.1137,-3.1187,-3.1285,-3.1158,-3.1159,-3.1181,-3.1408,-3.1426,-3.1445,-3.1276,-3.1279,-3.1282,-3.1404,0,-3.0617,-3.0748,-3.0759,-3.0877,-3.094,-3.0929,-3.0994,-3.1037,-3.1057,-3.1113,-3.1135,-3.1199,-3.1166,-3.1188,-3.1238,-3.1262,-3.1331,-3.1254,-3.1334,-3.1337,-3.1323,-3.1467,-3.1486,-3.1599,-3.142,-3.1423,-3.1425,0,-3.0768,-3.0823,-3.0948,-3.1,-3.1027,-3.1085,-3.1147,-3.1201,-3.1249,-3.126,-3.1303,-3.13,-3.1376,-3.1327,-3.1432,-3.1379,-3.1413,-3.143,-3.1435,-3.1443,-3.1387,-3.148,-3.1636,-3.1653,-3.145,-3.1448,-3.1446,0,-3.0855,-3.096,-3.1049,-3.1076,-3.1138,-3.1179,-3.1207,-3.1253,-3.1292,-3.1346,-3.1372,-3.1433,-3.1467,-3.1514,-3.1529,-3.1491,-3.1634,-3.1585,-3.1645,-3.1645,-3.1676,-3.1674,-3.184,-3.1696,-3.1696,-3.1696,-3.1695,0,-3.0983,-3.106,-3.1089,-3.1143,-3.1229,-3.1241,-3.1326,-3.1351,-3.1392,-3.1451,-3.1445,-3.15,-3.1515,-3.1573,-3.1585,-3.1671,-3.1685,-3.1697,-3.1699,-3.1698,-3.1697,-3.172,-3.1713,-3.17,-3.1699,-3.1698,-3.1698,0,-3.1094,-3.1117,-3.1213,-3.1264,-3.1279,-3.134,-3.1384,-3.1437,-3.1456,-3.1531,-3.1549,-3.158,-3.1648,-3.1667,-3.1748,-3.1756,-3.1857,-3.1852,-3.1842,-3.1842,-3.1901,-3.1896,-3.2089,-3.2116,-3.1954,-3.1955,-3.1956,0,-3.1175,-3.1234,-3.1293,-3.1332,-3.1362,-3.1426,-3.1467,-3.1481,-3.1523,-3.1584,-3.1629,-3.1697,-3.1752,-3.1862,-3.1891,-3.1953,-3.1949,-3.2013,-3.1959,-3.1956,-3.1952,-3.1948,-3.1955,-3.2023,-3.2025,-3.2027,-3.2028,0,-3.1316,-3.1324,-3.1383,-3.1447,-3.1496,-3.1547,-3.1595,-3.1628,-3.1649,-3.1697,-3.1768,-3.181,-3.1894,-3.1962,-3.2025,-3.2053,-3.2045,-3.2045,-3.2062,-3.2062,-3.2054,-3.206,-3.187,-3.204,-3.2039,-3.2038,-3.2037,-3.2037,-3.1415,-3.1468,-3.1518,-3.1584,-3.1622,-3.1668,-3.1721,-3.1748,-3.1807,-3.1877,-3.1882,-3.1958,-3.2006,-3.2091,-3.2122,-3.2182,-3.2163,-3.2188,-3.2195,-3.2201,-3.2207,-3.2044,-3.2194,-3.2193,-3.2193,-3.2193,-3.2193,0,-3.1556,-3.1588,-3.1649,-3.1718,-3.1771,-3.1759,-3.1812,-3.1857,-3.1925,-3.1971,-3.2026,-3.2107,-3.2173,-3.2208,-3.2273,-3.2315,-3.2312,-3.2331,-3.2329,-3.2336,-3.2219,-3.2198,-3.2332,-3.2332,-3.2332,-3.2332,-3.2332,-3.2332,-3.1636,-3.1725,-3.174,-3.1848,-3.1879,-3.1955,-3.1987,-3.2029,-3.2066,-3.2158,-3.2213,-3.2236,-3.2278,-3.2346,-3.2406,-3.2414,-3.2439,-3.2461,-3.2467,-3.2358,-3.2344,-3.233,-3.231,-3.2466,-3.2466,-3.2579,-3.258,-3.258]}]]